Regional Weather Roundup
Issued by NWS

Home | Current Version | Previous Version | Text Only | Print | Product List | Glossary On
Versions: 1 2 3 4 5 6 7 8 9 10 11 12 13 14 15 16 17 18 19 20 21 22 23 24 25 26 27 28 29 30 31 32 33 34 35 36 37 38 39 40 41 42 43 44 45 46 47 48 49 50
952
ASUS43 KDTX 062110
RWRMI
MICHIGAN HOURLY REGIONAL WEATHER ROUNDUP
NATIONAL WEATHER SERVICE DETROIT/PONTIAC MI
400 PM EST TUE DEC 06 2016

NOTE: "FAIR" INDICATES FEW OR NO CLOUDS BELOW 12,000 FEET WITH NO
SIGNIFICANT WEATHER AND/OR OBSTRUCTION TO VISIBILITY.

MIZ047>049-052>055-059>063-066>070-074>076-081>083-062200-
SOUTHEAST LOWER MICHIGAN

CITY           SKY/WX    TMP DP  RH WIND       PRES   REMARKS
ADRIAN         CLOUDY    37  37 100 CALM      29.71S FOG
ALMA           CLOUDY    38  35  87 CALM      29.71S
ANN ARBOR      CLOUDY    39  38  96 CALM      29.70S FOG
BAD AXE        CLOUDY    39  32  77 SE7       29.72F WCI  34
CARO           CLOUDY    37  34  87 E5        29.71F WCI  34
DETROIT CITY   LGT RAIN  39  38  96 CALM      29.73R
DETROIT        LGT RAIN  39  38  96 CALM      29.71R FOG
FLINT          CLOUDY    39  37  92 SE5       29.71F
GROSSE ILE     LGT RAIN  40  38  94 CALM      29.71R
HILLSDALE      CLOUDY    36  34  93 CALM      29.68S
HOWELL         CLOUDY    38  37  92 SE6       29.69S FOG     WCI  34

CITY           SKY/WX    TMP DP  RH WIND       PRES   REMARKS
JACKSON        CLOUDY    39  34  82 S5        29.69R
LAMBERTVILLE   CLOUDY    39  37  93 CALM      29.70F FOG
LANSING        CLOUDY    41  34  76 S8        29.70F
LAPEER         NOT AVBL
MASON          CLOUDY    39  35  86 SE7       29.69S WCI  34
MONROE         LGT RAIN  39  38  97 CALM      29.70S
PONTIAC        LGT RAIN  38  35  89 SE5       29.69S FOG     WCI  34
PORT HOPE        N/A     41  33  73 SE12      29.72F
PORT HURON     MIX PCPN  37  36  93 CALM      29.73R
TRI CITIES     CLOUDY    40  35  83 E8        29.71F WCI  34
MIDLAND        CLOUDY    39  32  75 E7        29.69F WCI  34
TROY           RAIN      39  37  90 E3        29.73R
SAGINAW HB     CLOUDY    41  32  70 SE8       29.71S
$$
MIZ043>046-050>051-056>058-064>065-071>073-077>080-062200-
SOUTHWEST LOWER MICHIGAN

CITY           SKY/WX    TMP DP  RH WIND       PRES   REMARKS
BATTLE CREEK   CLEAR     41  35  79 SW6       29.70R
BENTON HARBOR  CLOUDY    40  33  76 W13       29.75R HAZE    WCI  32
BIG RAPIDS     CLOUDY    38  32  77 SE8       29.67S WCI  33
COLDWATER      CLOUDY    40  35  81 CALM      29.71R
FREMONT        CLOUDY    38  30  72 S3        29.69R
HOLLAND        MOCLDY    40  33  76 SW15      29.72R WCI  32
GRAND RAPIDS   MOCLDY    38  32  79 SE5       29.70S WCI  34
IONIA          FAIR      37  33  87 CALM      29.69S
KALAMAZOO      CLEAR     41  32  70 SW7       29.71R
LUDINGTON      CLOUDY    40  33  76 SW18      29.69R WCI  31
MARSHALL       CLOUDY    40  35  81 CALM      29.69S
MOUNT PLEASANT CLOUDY    38  33  81 E5        29.69F WCI  35
MUSKEGON       CLOUDY    41  33  73 SW15      29.72R
SOUTH HAVEN    MOCLDY    39  33  78 W9G17     29.74R WCI  33
$$
MIZ016>042-062200-
NORTHERN LOWER MICHIGAN

CITY           SKY/WX    TMP DP  RH WIND       PRES   REMARKS
ALPENA         MOCLDY    40  31  70 SE14      29.72F WCI  32
BEAVER ISLAND  MOCLDY    41  32  69 SE9G18    29.65F
BELLAIRE       PTCLDY    42  31  67 SE9G18    29.67F
CADILLAC       CLOUDY    36  31  82 SE10      29.64F WCI  28
CHARLEVOIX     CLEAR     42  31  64 SE10G20   29.68F
FRANKFORT      PTCLDY    42  31  65 S8        29.67R
GAYLORD        MOCLDY    38  29  70 SE12      29.66F WCI  30
GRAYLING       CLOUDY    38  32  78 SE6       29.69S WCI  34
HARBOR SPRINGS CLEAR     41  31  67 E10       29.66F
HOUGHTON LAKE  CLOUDY    37  31  78 SE7       29.69F WCI  32
MANISTEE       CLOUDY    42  29  59 S12       29.68R
OSCODA         CLOUDY    42  32  68 SE10      29.72F
PELLSTON       PTCLDY    41  30  65 SE15      29.67F
ROGERS CITY    MOCLDY    41  31  69 SE14G21   29.73F
TRAVERSE CITY  MOCLDY    41  29  62 SE13G23   29.66F
$$
MIZ007>008-015-062200-
EASTERN UPPER MICHIGAN

CITY           SKY/WX    TMP DP  RH WIND       PRES   REMARKS
KINROSS        CLOUDY    38  31  76 SE20G26   29.68F WCI  28
MACKINAC ISLAN PTCLDY    40  31  70 SE14G25   29.67F WCI  32
NEWBERRY       CLOUDY    38  33  83 S9G17     29.65S WCI  31
S. S. MARIE    CLOUDY    39  35  86 E13G21    29.69F WCI  31
MUNISING         N/A     39  29  67 S12G21    29.62S WCI  32
$$
MIZ004>006-011>014-085-062200-
CENTRAL UPPER MICHIGAN

CITY           SKY/WX    TMP DP  RH WIND       PRES   REMARKS
MANISTIQUE     CLOUDY    40  32  74 S13G20    29.64S WCI  32
ESCANABA       LGT RAIN  39  33  79 S10       29.63F WCI  32
MENOMINEE      LGT RAIN  36  31  82 SW5       29.66S WCI  32
SAWYER-GWINN   CLOUDY    36  30  80 S12       29.59F WCI  27
$$
MIZ001>003-009>011-084-062200-
WESTERN UPPER MICHIGAN

CITY           SKY/WX    TMP DP  RH WIND       PRES   REMARKS
IRON MOUNTAIN  CLOUDY    32  29  88 S8        29.58S FOG     WCI  25
HOUGHTON       CLOUDY    33  30  88 S8        29.53S WCI  26
COPPER HARBOR    N/A     37  33  85 SW8       29.54F WCI  31
IRONWOOD       FLURRIES  26  20  77 S17G28    29.55S WCI  13
$$

ABBREVIATIONS USED IN REMARKS
   TC - TEMPERATURE IN CELSIUS
  WCI - WIND CHILL INDEX
   HX - HEAT INDEX
  VSB - VISIBILITY





USA.gov is the U.S. government's official web portal to all federal, state and local government web resources and services.